This is the latest recevied weather packets stored in our database for station/object dl1wer-13. If no packets are shown the sender has not sent any weather packets the latest 1 day(s).
| Time | Temp. | Humidity | Pressure | Rain* | Wind** | Luminosity | Snow |
|---|---|---|---|---|---|---|---|
| 1778054422 | 14.44° C | 74% | 1033.1 hPa | 0 mm | - | - | - |
| 1778053823 | 13.89° C | 73% | 1033.1 hPa | 0 mm | - | - | - |
| 1778053223 | 13.89° C | 72% | 1032.9 hPa | 0 mm | - | - | - |
| 1778052623 | 13.89° C | 74% | 1033.2 hPa | 0 mm | - | - | - |
| 1778052022 | 13.89° C | 77% | 1033 hPa | 0 mm | - | - | - |
| 1778051422 | 13.33° C | 79% | 1033.2 hPa | 0 mm | - | - | - |
| 1778050223 | 12.78° C | 80% | 1033.5 hPa | 0 mm | - | - | - |
| 1778049622 | 12.78° C | 80% | 1033.5 hPa | 0 mm | - | - | - |
| 1778047822 | 11.67° C | 86% | 1033.2 hPa | 0 mm | - | - | - |
| 1778047223 | 11.11° C | 86% | 1033.1 hPa | 0 mm | - | - | - |
| 1778046022 | 10.56° C | 84% | 1033.2 hPa | 0 mm | - | - | - |
| 1778044822 | 11.11° C | 89% | 1033.3 hPa | 0 mm | - | - | - |
| 1778043623 | 10.56° C | 95% | 1033.6 hPa | 0 mm | - | - | - |
| 1778043022 | 9.44° C | 94% | 1033.7 hPa | 0 mm | - | - | - |
| 1778042422 | 8.89° C | 93% | 1033.9 hPa | 0 mm | - | - | - |
| 1778041822 | 8.33° C | 92% | 1033.7 hPa | 0 mm | - | - | - |
| 1778041222 | 8.33° C | 92% | 1033.8 hPa | 0 mm | - | - | - |
| 1778040623 | 8.33° C | 92% | 1033.8 hPa | 0 mm | - | - | - |
| 1778040023 | 8.89° C | 92% | 1033.8 hPa | 0 mm | - | - | - |
| 1778039422 | 8.89° C | 91% | 1034.1 hPa | 0 mm | - | - | - |
| 1778038822 | 8.89° C | 91% | 1034.1 hPa | 0 mm | - | - | - |
| 1778038223 | 8.89° C | 91% | 1034.1 hPa | 0 mm | - | - | - |
| 1778037622 | 9.44° C | 90% | 1034.5 hPa | 0 mm | - | - | - |
| 1778036423 | 9.44° C | 89% | 1034.1 hPa | 0 mm | - | - | - |
| 1778035822 | 10° C | 90% | 1034.2 hPa | 0 mm | - | - | - |
* Rain latest hour (hover to see other rain measurements)
** Current wind speed in m/s (hover to see current wind gust speed)